Regional Weather Roundup
Issued by NWS

Home | Current Version | Previous Version | Text Only | Print | Product List | Glossary On
Versions: 1 2 3 4 5 6 7 8 9 10 11 12 13 14 15 16 17 18 19 20 21 22 23 24 25 26 27 28 29 30 31 32 33 34 35 36 37 38 39 40 41 42 43 44 45 46 47 48 49 50
000
ASUS45 KBOI 041210
RWRID

IDAHO REGIONAL WEATHER ROUNDUP
NATIONAL WEATHER SERVICE BOISE ID
600 AM MDT TUE AUG 04 2015

NOTE: "FAIR" INDICATES FEW OR NO CLOUDS BELOW 12000 FEET
WITH NO SIGNIFICANT WEATHER AND/OR OBSTRUCTIONS TO VISIBILITY

IDZ012-014-041300-
SOUTHWEST IDAHO


CITY           SKY/WX    TMP DP  RH WIND       PRES   REMARKS
BOISE          MOCLDY    67  55  65 VRB6      29.93S
CALDWELL       MOCLDY    70  48  46 SW8         N/A
MOUNTAIN HOME  CLEAR     72  47  40 CALM      29.97S
$$

IDZ016-017-041300-
SOUTHCENTRAL IDAHO


CITY           SKY/WX    TMP DP  RH WIND       PRES   REMARKS
BURLEY         CLEAR     55  51  86 CALM      30.03R
JEROME         CLEAR     57  52  83 VRB3      30.05R
TWIN FALLS     CLEAR     65  45  48 SW16G23   30.03R
$$

IDZ019>023-041300-
SOUTHEAST IDAHO


CITY           SKY/WX    TMP DP  RH WIND       PRES   REMARKS
IDAHO FALLS    CLOUDY    57  54  89 N5        30.11R
POCATELLO      CLEAR     54  54 100 W3        30.08R
REXBURG        CLOUDY    58  56  93 E3        30.12R
$$

IDZ006-010-011-018-031-032-041300-
CENTRAL IDAHO MOUNTAINS


CITY           SKY/WX    TMP DP  RH WIND       PRES   REMARKS
MCCALL         CLOUDY    51  45  79 CALM      30.09R
HAILEY         CLEAR     54  45  71 NW10G16   30.14R
STANLEY          N/A     52  45  77 S8        30.25R
SALMON         PTCLDY    57  46  67 S3        30.00S
CHALLIS        PTCLDY    56  44  64 CALM      30.11R
$$

IDZ002-004-006-007-026-041300-
NORTHERN IDAHO


CITY           SKY/WX    TMP DP  RH WIND       PRES   REMARKS
LEWISTON       PTCLDY    71  47  42 NE3       29.88R
LOWELL           N/A     60  51  72 CALM      29.95R
COEUR D`ALENE  CLEAR     66  48  52 S6        29.89R
MULLAN PASS    PTCLDY    57  41  55 VRB5      30.10R
$$


USA.gov is the U.S. government's official web portal to all federal, state and local government web resources and services.